Forside
METAR-TAF:

METAR-TAF

Lufthavne :

Aitkin Municipal Airport (Steve Kurtz Field)

Aitkin, Minnesota, USA

Breddekreds: 46-33N, længdekreds: 093-41W, højde: 367 m

Aktuelle vejr

Denne rapport blev lavet for 20 minutter siden, kl. 12:15 UTC
Vind 10 kt fra sydøst
Temperatur -1°C
Fugtighed 80%
Tryk 1014 hPa
Sigt: 11.3 km

METAR: KAIT 241215Z AUTO 14010KT 7SM M01/M04 A2995 RMK AO2

Tid: 06:35 (12:35 UTC)


TAF: fraværende

Vejrobservationer og prognoser fra mere end 4000 lufthavne (METAR og TAF).

De gule og røde prikker repræsenterer de meteorologiske stationer.

Flyt musen over at se navnet på stationen.

Så klik over at se vejr observationer og prognoser.

At skifte det kort: Klik på de grønne knapper med et sort kors for at zoome ind; på den grønne knap med en bindestreg for at zoome ud; eller på de grønne pile for tilstødende kort.


METAR-TAF: